Rockford, IL

8:03 AM CDT on August 23, 2017 (GMT -0500)
Greater Rockford

Weather History for KRFD - June, 2014

Change the Weather History Date:

Tuesday, June 17, 2014

  Actual Average Record
Temperature  
Mean Temperature 78 °F 70 °F  
Max Temperature 89 °F 82 °F 99 °F (1933)
Min Temperature 67 °F 59 °F 42 °F (1980)
Degree Days  
Heating Degree Days 0 1  
Month to date heating degree days 11 26  
Since 1 June heating degree days 11 26  
Since 1 July heating degree days 7680 6564  
Cooling Degree Days 13 6  
Month to date cooling degree days 74 77  
Year to date cooling degree days 157 132  
Since 1 June cooling degree days 74 77  
Growing Degree Days 28 (Base 50)    
Moisture  
Dew Point 67 °F    
Average Humidity 69    
Maximum Humidity 87    
Minimum Humidity 51    
Precipitation  
Precipitation 0.89 in 0.16 in 1.10 in (1964)
Month to date precipitation 2.84 2.74  
Year to date precipitation 12.81 15.21  
Snow  
Snow 0.00 in 0.00 in 0.00 in ()
Month to date snowfall 0.0 0.0  
Since 1 June snowfall 0.0 0.0  
Since 1 July snowfall 56.9 36.7  
Snow Depth 0.00 in    
Sea Level Pressure  
Sea Level Pressure 29.86 in    
Wind  
Wind Speed 8 mph (SW)    
Max Wind Speed 23 mph    
Max Gust Speed 30 mph    
Visibility 9 miles    
Events Rain , Thunderstorm    
T = Trace of Precipitation, MM = Missing Value Source: NWS Daily Summary

Daily Weather History Graph

Daily Weather History Graph

Search for Another Location

Airport or City:

Trip Planner

Search our weather history database for the weather conditions in past years. The results will help you decide how hot, cold, wet, or windy it might be!

Date:

Astronomy

Jun. 17, 2014 Rise Set
Actual Time 5:19 AM CDT 8:35 PM CDT
Civil Twilight 4:44 AM CDT 9:09 PM CDT
Nautical Twilight 4:00 AM CDT 9:54 PM CDT
Astronomical Twilight 3:05 AM CDT 10:48 PM CDT
Moon 11:58 PM CDT (6/17) 10:39 AM CDT (6/17)
Length of Visible Light 16h 24m
Length of Day
15h 15m
Waning Gibbous, 73% of the Moon is Illuminated
Jun 17
Waning Gibbous
Jun 19
Last Quarter
Jun 27
New
Jul 5
First Quarter
Jul 12
Full

Hourly Weather History & Observations

Time (CDT) Temp. Heat Index Dew Point Humidity Pressure Visibility Wind Dir Wind Speed Gust Speed Precip Events Conditions
12:05 AM 80.1 °F 82.7 °F 68.0 °F 67% 29.85 in 10.0 mi South 17.3 mph - N/A Thunderstorm Thunderstorm
12:54 AM 78.1 °F - 69.1 °F 74% 29.85 in 10.0 mi South 15.0 mph 24.2 mph 0.00 in Rain , Thunderstorm Light Thunderstorms and Rain
1:44 AM 70.0 °F - 64.0 °F 81% 29.93 in 10.0 mi NW 9.2 mph 20.7 mph 0.03 in Rain , Thunderstorm Light Thunderstorms and Rain
1:54 AM 69.1 °F - 64.0 °F 84% 29.89 in 5.0 mi NW 13.8 mph 23.0 mph 0.04 in Rain , Thunderstorm Thunderstorms and Rain
2:25 AM 66.9 °F - 64.9 °F 93% 29.90 in 2.0 mi Variable 4.6 mph - 0.30 in Rain , Thunderstorm Thunderstorms and Rain
2:39 AM 68.0 °F - 64.9 °F 90% 29.86 in 6.0 mi SSE 11.5 mph - 0.51 in Rain , Thunderstorm Light Thunderstorms and Rain
2:54 AM 68.0 °F - 64.9 °F 90% 29.83 in 10.0 mi SE 8.1 mph - 0.52 in Rain , Thunderstorm Light Thunderstorms and Rain
3:16 AM 69.1 °F - 66.0 °F 90% 29.84 in 10.0 mi SSE 8.1 mph - 0.00 in   Overcast
3:54 AM 73.0 °F - 68.0 °F 84% 29.80 in 10.0 mi South 12.7 mph - 0.00 in   Mostly Cloudy
4:45 AM 75.0 °F - 68.0 °F 79% 29.79 in 10.0 mi South 16.1 mph - N/A Thunderstorm Thunderstorm
4:54 AM 75.0 °F - 69.1 °F 82% 29.82 in 7.0 mi SW 21.9 mph 27.6 mph 0.00 in Rain , Thunderstorm Light Thunderstorms and Rain
4:58 AM 73.9 °F - 69.1 °F 85% 29.83 in 1.0 mi SSW 20.7 mph 28.8 mph 0.01 in Rain , Thunderstorm Heavy Thunderstorms and Rain
5:15 AM 73.9 °F - 69.1 °F 85% 29.84 in 3.0 mi WSW 15.0 mph 25.3 mph 0.27 in Rain , Thunderstorm Light Thunderstorms and Rain
5:27 AM 73.9 °F - 69.1 °F 85% 29.84 in 8.0 mi SSW 17.3 mph 24.2 mph 0.28 in Rain , Thunderstorm Light Thunderstorms and Rain
5:41 AM 73.9 °F - 69.1 °F 85% 29.85 in 10.0 mi West 6.9 mph 19.6 mph 0.29 in Rain Light Rain
5:54 AM 72.0 °F - 68.0 °F 87% 29.84 in 10.0 mi WNW 5.8 mph - 0.29 in   Overcast
6:34 AM 71.1 °F - 66.9 °F 87% 29.84 in 10.0 mi South 6.9 mph - N/A   Overcast
6:54 AM 72.0 °F - 66.9 °F 84% 29.83 in 10.0 mi SW 16.1 mph 24.2 mph N/A   Overcast
7:54 AM 69.1 °F - 64.0 °F 84% 29.83 in 10.0 mi SW 13.8 mph - N/A   Overcast
8:54 AM 70.0 °F - 63.0 °F 78% 29.79 in 10.0 mi SW 9.2 mph - 0.00 in   Overcast
9:54 AM 73.0 °F - 64.0 °F 73% 29.88 in 10.0 mi NW 13.8 mph - N/A   Mostly Cloudy
10:54 AM 75.0 °F - 64.0 °F 69% 29.88 in 10.0 mi WSW 9.2 mph - N/A   Mostly Cloudy
11:54 AM 80.1 °F 81.9 °F 64.9 °F 60% 29.89 in 10.0 mi WSW 10.4 mph - N/A   Scattered Clouds
12:54 PM 82.9 °F 85.0 °F 66.0 °F 56% 29.90 in 10.0 mi Variable 6.9 mph - N/A   Partly Cloudy
1:54 PM 84.0 °F 85.4 °F 64.0 °F 51% 29.89 in 10.0 mi WSW 9.2 mph - N/A   Partly Cloudy
2:54 PM 84.9 °F 86.6 °F 64.9 °F 51% 29.88 in 10.0 mi SW 10.4 mph - N/A   Scattered Clouds
3:54 PM 84.9 °F 87.1 °F 66.0 °F 53% 29.88 in 10.0 mi WSW 5.8 mph - N/A   Scattered Clouds
4:54 PM 87.1 °F 90.6 °F 68.0 °F 53% 29.88 in 10.0 mi Variable 3.5 mph - N/A   Scattered Clouds
5:54 PM 87.1 °F 90.6 °F 68.0 °F 53% 29.87 in 10.0 mi Calm Calm - N/A   Mostly Cloudy
6:54 PM 87.1 °F 91.3 °F 69.1 °F 55% 29.87 in 10.0 mi Calm Calm - N/A   Mostly Cloudy
7:54 PM 84.9 °F 90.1 °F 71.1 °F 63% 29.88 in 10.0 mi Calm Calm - N/A   Mostly Cloudy
8:54 PM 82.0 °F 87.4 °F 73.0 °F 74% 29.89 in 10.0 mi Calm Calm - 0.04 in   Overcast
9:54 PM 79.0 °F - 73.9 °F 84% 29.90 in 10.0 mi South 3.5 mph - N/A   Overcast
10:54 PM 79.0 °F - 73.0 °F 82% 29.90 in 10.0 mi SSW 5.8 mph - N/A   Overcast
11:54 PM 78.1 °F - 72.0 °F 81% 29.91 in 10.0 mi SSE 4.6 mph - N/A   Overcast